EW6851 Weather Reports


Display with metric or nautical units.
time (UTC)temp
F
wind
direction
speed
MPH
gust
MPH
rain 1hr
in
rain 24hr
in
rain mn
in
humidity
%
barometer
mb
20260902224141 80 131 1.0 4.0 0.00 0.00 0.00 79 1017.2
20260902223641 80 146 2.0 4.0 0.00 0.00 0.00 78 1017.2
20260902223141 80 138 0.0 3.0 0.00 0.00 0.00 78 1017.2
20260902222644 80 134 2.0 5.0 0.00 0.00 0.00 78 1017.1
20260902222141 80 127 5.0 6.0 0.00 0.00 0.00 78 1017.1
20260902221644 81 168 2.0 6.0 0.00 0.00 0.00 78 1017.1
20260902221141 81 165 2.0 5.0 0.00 0.00 0.00 77 1017.2
20260902220644 81 146 0.0 4.0 0.00 0.00 0.00 77 1017.2
20260902220141 81 176 0.0 5.0 0.00 0.00 0.00 77 1017.2
20260902215641 81 167 0.0 6.0 0.00 0.00 0.00 76 1017.3
20260902215150 82 160 2.0 3.0 0.00 0.00 0.00 76 1017.3
20260902214641 82 142 0.0 2.0 0.00 0.00 0.00 76 1017.3
20260902214141 82 149 0.0 3.0 0.00 0.00 0.00 75 1017.4
20260902213644 82 179 0.0 3.0 0.00 0.00 0.00 75 1017.4
20260902213141 82 205 0.0 0.0 0.00 0.00 0.00 75 1017.4
20260902212650 82 205 0.0 3.0 0.00 0.00 0.00 75 1017.3
20260902212144 82 186 0.0 3.0 0.00 0.00 0.00 75 1017.2
20260902211641 82 190 1.0 3.0 0.00 0.00 0.00 74 1017.2
20260902211144 83 209 2.0 3.0 0.00 0.00 0.00 74 1017.3
20260902210644 83 202 3.0 4.0 0.00 0.00 0.00 74 1017.2
20260902210144 83 223 2.0 4.0 0.00 0.00 0.00 74 1017.2
20260902205641 83 194 3.0 3.0 0.00 0.00 0.00 74 1017.2
20260902205141 83 198 2.0 5.0 0.00 0.00 0.00 73 1017.2
20260902204648 83 230 3.0 6.0 0.00 0.00 0.00 73 1017.2
20260902204141 83 292 1.0 4.0 0.00 0.00 0.00 73 1017.2
20260902203644 83 296 0.0 0.0 0.00 0.00 0.00 73 1017.2
20260902203144 83 279 0.0 0.0 0.00 0.00 0.00 73 1017.3
20260902202641 83 287 0.0 3.0 0.00 0.00 0.00 74 1017.2
20260902202144 83 269 2.0 3.0 0.00 0.00 0.00 74 1017.3
20260902201650 83 326 0.0 3.0 0.00 0.00 0.00 74 1017.3
20260902201141 83 339 0.0 4.0 0.00 0.00 0.00 74 1017.3
20260902200641 83 309 2.0 4.0 0.00 0.00 0.00 74 1017.4
20260902200141 83 331 3.0 5.0 0.00 0.00 0.00 74 1017.4
20260902195641 83 314 3.0 5.0 0.00 0.00 0.00 74 1017.5
20260902195150 83 315 2.0 6.0 0.00 0.00 0.00 74 1017.5
20260902194641 83 315 5.0 5.0 0.00 0.00 0.00 74 1017.5
20260902194144 83 313 2.0 5.0 0.00 0.00 0.00 74 1017.6
20260902193641 83 290 2.0 5.0 0.00 0.00 0.00 73 1017.5
20260902193144 83 299 3.0 6.0 0.00 0.00 0.00 73 1017.6
20260902192641 83 323 2.0 6.0 0.00 0.00 0.00 74 1017.6
20260902192141 83 298 1.0 6.0 0.00 0.00 0.00 74 1017.6
20260902191641 84 301 0.0 4.0 0.00 0.00 0.00 74 1017.5
20260902191141 84 302 0.0 5.0 0.00 0.00 0.00 74 1017.5
20260902190641 84 269 3.0 4.0 0.00 0.00 0.00 74 1017.4
20260902190141 84 293 2.0 5.0 0.00 0.00 0.00 74 1017.4
20260902185644 84 329 2.0 5.0 0.00 0.00 0.00 74 1017.4
20260902185147 84 301 1.0 6.0 0.00 0.00 0.00 74 1017.3
20260902184641 84 302 3.0 6.0 0.00 0.00 0.00 73 1017.3
20260902184144 84 321 3.0 4.0 0.00 0.00 0.00 73 1017.2
20260902183647 84 316 3.0 6.0 0.00 0.00 0.00 72 1017.2
20260902183141 84 307 4.0 6.0 0.00 0.00 0.00 72 1017.1
20260902182644 84 300 4.0 6.0 0.00 0.00 0.00 72 1017.1
20260902182141 84 293 0.0 6.0 0.00 0.00 0.00 72 1017.0
20260902181641 84 308 3.0 6.0 0.00 0.00 0.00 72 1016.9
20260902181141 84 240 2.0 2.0 0.00 0.00 0.00 72 1016.8
20260902180641 84 268 1.0 5.0 0.00 0.00 0.00 72 1016.9
20260902180141 84 251 3.0 5.0 0.00 0.00 0.00 71 1016.9
20260902175644 84 281 3.0 4.0 0.00 0.00 0.00 71 1016.7
20260902175141 84 284 1.0 4.0 0.00 0.00 0.00 71 1016.7
20260902174641 84 300 2.0 5.0 0.00 0.00 0.00 71 1016.6
20260902174144 84 333 3.0 6.0 0.00 0.00 0.00 71 1016.6
20260902173644 84 308 1.0 5.0 0.00 0.00 0.00 72 1016.6
20260902173141 85 265 1.0 4.0 0.00 0.00 0.00 71 1016.6
20260902172641 85 300 2.0 4.0 0.00 0.00 0.00 71 1016.6
20260902172141 85 298 4.0 6.0 0.00 0.00 0.00 69 1016.7
20260902171642 86 302 5.0 6.0 0.00 0.00 0.00 69 1016.6
20260902171141 86 305 4.0 5.0 0.00 0.00 0.00 68 1016.5
20260902170641 86 15 1.0 6.0 0.00 0.00 0.00 68 1016.6
20260902170141 86 285 3.0 4.0 0.00 0.00 0.00 67 1016.6
20260902165644 86 288 2.0 6.0 0.00 0.00 0.00 67 1016.6
20260902165141 86 306 3.0 5.0 0.00 0.00 0.00 67 1016.6
20260902164641 87 333 5.0 5.0 0.00 0.00 0.00 66 1016.6
20260902164141 87 298 3.0 6.0 0.00 0.00 0.00 66 1016.8
20260902163642 87 281 1.0 4.0 0.00 0.00 0.00 67 1016.7
20260902163141 87 267 2.0 6.0 0.00 0.00 0.00 66 1016.7
20260902162641 87 332 5.0 7.0 0.00 0.00 0.00 65 1016.8
20260902162141 88 305 6.0 6.0 0.00 0.00 0.00 65 1016.9
20260902161641 88 39 2.0 5.0 0.00 0.00 0.00 66 1016.9
20260902161141 88 300 2.0 6.0 0.00 0.00 0.00 65 1016.9
20260902160641 88 295 4.0 6.0 0.00 0.00 0.00 62 1016.9
20260902160141 88 313 2.0 7.0 0.00 0.00 0.00 62 1016.9
20260902155647 88 319 4.0 6.0 0.00 0.00 0.00 62 1016.9
20260902155141 88 302 2.0 5.0 0.00 0.00 0.00 62 1016.8
20260902154645 89 28 3.0 6.0 0.00 0.00 0.00 62 1016.9
20260902154141 89 304 3.0 7.0 0.00 0.00 0.00 60 1016.9
20260902153641 89 273 2.0 8.0 0.00 0.00 0.00 62 1016.9
20260902153144 89 295 3.0 8.0 0.00 0.00 0.00 60 1016.9
20260902152647 89 304 4.0 7.0 0.00 0.00 0.00 61 1016.9
20260902152144 89 284 6.0 7.0 0.00 0.00 0.00 61 1016.9
20260902151641 89 273 4.0 6.0 0.00 0.00 0.00 60 1016.9
20260902151150 89 29 2.0 8.0 0.00 0.00 0.00 61 1016.9
20260902150647 89 255 3.0 9.0 0.00 0.00 0.00 62 1016.9
20260902150141 89 169 0.0 8.0 0.00 0.00 0.00 61 1016.9
20260902145644 89 289 5.0 8.0 0.00 0.00 0.00 61 1017.0
20260902145144 89 257 1.0 7.0 0.00 0.00 0.00 62 1017.0
20260902144642 89 313 2.0 7.0 0.00 0.00 0.00 62 1017.1
20260902144147 89 344 4.0 8.0 0.00 0.00 0.00 61 1017.0
20260902143641 90 165 0.0 6.0 0.00 0.00 0.00 61 1017.0
20260902143141 90 268 4.0 7.0 0.00 0.00 0.00 61 1017.1
20260902142644 89 323 3.0 7.0 0.00 0.00 0.00 61 1017.1
20260902142144 89 321 2.0 9.0 0.00 0.00 0.00 61 1017.1
20260902141644 89 324 4.0 8.0 0.00 0.00 0.00 62 1017.1
20260902141144 89 283 3.0 8.0 0.00 0.00 0.00 60 1017.2
20260902140641 88 331 6.0 7.0 0.00 0.00 0.00 62 1017.2
20260902140147 89 319 4.0 9.0 0.00 0.00 0.00 61 1017.2
20260902135641 89 330 4.0 8.0 0.00 0.00 0.00 62 1017.2
20260902135144 89 332 2.0 11.0 0.00 0.00 0.00 61 1017.3
20260902134644 90 324 6.0 8.0 0.00 0.00 0.00 60 1017.3
20260902134144 89 308 4.0 7.0 0.00 0.00 0.00 61 1017.3
20260902133642 89 290 2.0 8.0 0.00 0.00 0.00 63 1017.3
20260902133141 89 297 4.0 9.0 0.00 0.00 0.00 63 1017.4
20260902132644 89 306 2.0 8.0 0.00 0.00 0.00 62 1017.5
20260902132147 89 289 4.0 10.0 0.00 0.00 0.00 62 1017.4
20260902131647 89 0 1.0 10.0 0.00 0.00 0.00 63 1017.5
20260902131144 89 293 4.0 8.0 0.00 0.00 0.00 63 1017.6
20260902130648 89 351 2.0 7.0 0.00 0.00 0.00 64 1017.6
20260902130144 89 285 2.0 9.0 0.00 0.00 0.00 64 1017.7
20260902125647 89 335 4.0 9.0 0.00 0.00 0.00 64 1017.7
20260902125142 89 17 3.0 10.0 0.00 0.00 0.00 63 1017.7
20260902124641 88 333 4.0 10.0 0.00 0.00 0.00 65 1017.7
20260902124144 89 311 8.0 11.0 0.00 0.00 0.00 64 1017.8
20260902123641 89 5 6.0 10.0 0.00 0.00 0.00 63 1017.8
20260902123144 89 311 9.0 11.0 0.00 0.00 0.00 63 1017.9
20260902122641 89 239 7.0 10.0 0.00 0.00 0.00 63 1017.9
20260902122144 89 287 5.0 9.0 0.00 0.00 0.00 62 1018.0
20260902121644 89 5 4.0 10.0 0.00 0.00 0.00 63 1018.0
20260902121141 89 272 5.0 8.0 0.00 0.00 0.00 61 1018.1
20260902120641 89 340 5.0 10.0 0.00 0.00 0.00 62 1018.1
20260902120141 89 259 7.0 9.0 0.00 0.00 0.00 63 1018.1
20260902115644 89 332 2.0 10.0 0.00 0.00 0.00 62 1018.1
20260902115141 89 313 7.0 9.0 0.00 0.00 0.00 60 1018.2
20260902114641 89 306 2.0 11.0 0.00 0.00 0.00 59 1018.1
20260902114150 89 292 6.0 9.0 0.00 0.00 0.00 60 1018.1
20260902113644 89 321 3.0 8.0 0.00 0.00 0.00 58 1018.2
20260902113144 89 343 6.0 10.0 0.00 0.00 0.00 56 1018.1
20260902112644 89 277 7.0 10.0 0.00 0.00 0.00 60 1018.1
20260902112144 89 269 3.0 10.0 0.00 0.00 0.00 59 1018.1
20260902111641 90 314 3.0 9.0 0.00 0.00 0.00 58 1018.1
20260902111144 89 342 2.0 10.0 0.00 0.00 0.00 60 1018.1
20260902110644 89 5 3.0 7.0 0.00 0.00 0.00 59 1018.1
20260902110144 89 286 0.0 6.0 0.00 0.00 0.00 60 1018.1
20260902105641 89 61 2.0 8.0 0.00 0.00 0.00 59 1018.2
20260902105141 89 326 7.0 8.0 0.00 0.00 0.00 59 1018.2
20260902104641 89 265 6.0 9.0 0.00 0.00 0.00 59 1018.2
20260902104141 89 336 2.0 8.0 0.00 0.00 0.00 61 1018.2
20260902103647 89 278 5.0 10.0 0.00 0.00 0.00 61 1018.3
20260902103144 89 313 8.0 8.0 0.00 0.00 0.00 60 1018.4
20260902102644 89 286 4.0 6.0 0.00 0.00 0.00 62 1018.4
20260902102147 89 342 2.0 6.0 0.00 0.00 0.00 62 1018.4
20260902101641 88 278 1.0 7.0 0.00 0.00 0.00 63 1018.5
20260902101142 89 252 3.0 8.0 0.00 0.00 0.00 62 1018.6
20260902100642 88 289 4.0 11.0 0.00 0.00 0.00 63 1018.5
20260902100141 88 275 1.0 9.0 0.00 0.00 0.00 64 1018.5
20260902095647 88 313 7.0 10.0 0.00 0.00 0.00 64 1018.5
20260902095141 88 266 3.0 12.0 0.00 0.00 0.00 62 1018.5
20260902094641 88 289 6.0 9.0 0.00 0.00 0.00 62 1018.5
20260902094141 88 305 7.0 9.0 0.00 0.00 0.00 63 1018.6
20260902093644 87 290 4.0 11.0 0.00 0.00 0.00 63 1018.5
20260902093141 88 307 6.0 10.0 0.00 0.00 0.00 61 1018.5
20260902092644 88 278 3.0 7.0 0.00 0.00 0.00 60 1018.5
20260902092150 88 263 3.0 8.0 0.00 0.00 0.00 63 1018.5
20260902091644 88 284 4.0 6.0 0.00 0.00 0.00 64 1018.4
20260902091142 87 301 2.0 8.0 0.00 0.00 0.00 62 1018.4
20260902090645 87 309 7.0 10.0 0.00 0.00 0.00 62 1018.4
20260902090151 88 234 4.0 9.0 0.00 0.00 0.00 62 1018.4
20260902085642 87 346 3.0 7.0 0.00 0.00 0.00 63 1018.3
20260902085144 87 309 3.0 9.0 0.00 0.00 0.00 64 1018.2
20260902084641 87 230 3.0 8.0 0.00 0.00 0.00 63 1018.2
20260902084141 87 306 5.0 7.0 0.00 0.00 0.00 65 1018.1
20260902083641 87 316 4.0 8.0 0.00 0.00 0.00 64 1018.1
20260902083145 87 342 7.0 8.0 0.00 0.00 0.00 64 1018.0
20260902082641 87 317 3.0 8.0 0.00 0.00 0.00 64 1018.0
20260902082142 87 265 3.0 9.0 0.00 0.00 0.00 63 1018.1
20260902081641 87 313 4.0 7.0 0.00 0.00 0.00 63 1018.0
20260902081142 87 319 3.0 7.0 0.00 0.00 0.00 63 1018.0
20260902080644 87 298 4.0 7.0 0.00 0.00 0.00 64 1018.0
20260902080141 87 287 3.0 8.0 0.00 0.00 0.00 62 1018.0
20260902075642 86 307 3.0 6.0 0.00 0.00 0.00 63 1017.9
20260902075151 86 338 5.0 6.0 0.00 0.00 0.00 64 1017.8
20260902074641 86 300 3.0 6.0 0.00 0.00 0.00 64 1017.8
20260902074144 86 201 3.0 7.0 0.00 0.00 0.00 63 1017.7
20260902073645 86 303 4.0 4.0 0.00 0.00 0.00 64 1017.7
20260902073141 86 318 1.0 6.0 0.00 0.00 0.00 63 1017.7
20260902072641 86 303 2.0 5.0 0.00 0.00 0.00 62 1017.8
20260902072144 86 39 0.0 8.0 0.00 0.00 0.00 62 1017.8
20260902071647 86 292 4.0 6.0 0.00 0.00 0.00 63 1017.6
20260902071145 86 261 2.0 5.0 0.00 0.00 0.00 63 1017.6
20260902070648 85 284 2.0 5.0 0.00 0.00 0.00 63 1017.7
20260902070145 85 221 2.0 6.0 0.00 0.00 0.00 63 1017.6
20260902065645 85 240 0.0 2.0 0.00 0.00 0.00 64 1017.5
20260902065142 85 178 1.0 4.0 0.00 0.00 0.00 64 1017.5
20260902064645 85 245 2.0 4.0 0.00 0.00 0.00 65 1017.5
20260902064148 85 119 0.0 0.0 0.00 0.00 0.00 66 1017.5
20260902063645 84 187 0.0 1.0 0.00 0.00 0.00 68 1017.4
20260902063148 83 139 0.0 3.0 0.00 0.00 0.00 68 1017.4
20260902062642 83 191 2.0 3.0 0.00 0.00 0.00 69 1017.3
20260902062145 83 144 3.0 5.0 0.00 0.00 0.00 71 1017.3
20260902061142 82 202 2.0 6.0 0.00 0.00 0.00 72 1017.3
20260902060648 82 149 3.0 5.0 0.00 0.00 0.00 72 1017.2
20260902060145 82 173 2.0 4.0 0.00 0.00 0.00 73 1017.3
20260902055642 81 173 0.0 2.0 0.00 0.00 0.00 74 1017.3
20260902055145 81 173 0.0 0.0 0.00 0.00 0.00 75 1017.3
20260902054648 80 173 0.0 3.0 0.00 0.00 0.00 76 1017.3
20260902054142 80 167 2.0 4.0 0.00 0.00 0.00 76 1017.3
20260902053642 80 216 0.0 6.0 0.00 0.00 0.00 77 1017.3
20260902053148 79 153 2.0 5.0 0.00 0.00 0.00 78 1017.3
20260902052648 79 141 2.0 6.0 0.00 0.00 0.00 78 1017.3
20260902052142 79 164 4.0 6.0 0.00 0.00 0.00 78 1017.2
20260902051645 79 171 1.0 5.0 0.00 0.00 0.00 78 1017.2
20260902051145 78 173 1.0 4.0 0.00 0.00 0.00 79 1017.3
20260902050645 78 154 3.0 7.0 0.00 0.00 0.00 78 1017.3
20260902050142 78 135 1.0 6.0 0.00 0.00 0.00 78 1017.2
20260902045645 78 151 4.0 6.0 0.00 0.00 0.00 79 1017.3
20260902045142 78 134 3.0 6.0 0.00 0.00 0.00 79 1017.3
20260902044642 78 167 3.0 5.0 0.00 0.00 0.00 79 1017.3
20260902044148 78 148 5.0 7.0 0.00 0.00 0.00 79 1017.3
20260902043651 78 123 3.0 7.0 0.00 0.00 0.00 79 1017.3
20260902043145 78 139 5.0 6.0 0.00 0.00 0.00 79 1017.3
20260902042642 78 127 1.0 6.0 0.00 0.00 0.00 79 1017.3
20260902042145 78 128 4.0 6.0 0.00 0.00 0.00 79 1017.4
20260902041642 78 120 3.0 7.0 0.00 0.00 0.00 79 1017.4
20260902041142 78 145 2.0 7.0 0.00 0.00 0.00 79 1017.4
20260902040642 78 178 3.0 5.0 0.00 0.00 0.00 79 1017.4
20260902040145 78 180 4.0 6.0 0.00 0.00 0.00 79 1017.4
20260902035651 78 137 1.0 4.0 0.00 0.00 0.00 79 1017.4
20260902035142 78 136 3.0 6.0 0.00 0.00 0.00 79 1017.4
20260902034642 78 134 4.0 5.0 0.00 0.00 0.00 79 1017.4
20260902034145 78 138 3.0 6.0 0.00 0.00 0.00 79 1017.4
20260902033642 78 143 5.0 6.0 0.00 0.00 0.00 80 1017.4
20260902033148 78 158 3.0 6.0 0.00 0.00 0.00 80 1017.4
20260902032642 78 162 2.0 6.0 0.00 0.00 0.00 80 1017.4
20260902032145 78 173 5.0 7.0 0.00 0.00 0.00 80 1017.4
20260902031648 78 165 3.0 6.0 0.00 0.00 0.00 80 1017.4
20260902031143 78 240 1.0 7.0 0.00 0.00 0.00 80 1017.4
20260902030643 78 148 2.0 6.0 0.00 0.00 0.00 80 1017.5
20260902030142 78 142 0.0 5.0 0.00 0.00 0.00 80 1017.5
20260902025645 78 192 1.0 5.0 0.00 0.00 0.00 80 1017.5
20260902025146 78 165 3.0 4.0 0.00 0.00 0.00 80 1017.5
20260902024645 78 142 2.0 4.0 0.00 0.00 0.00 80 1017.5
20260902024142 78 145 4.0 5.0 0.00 0.00 0.00 80 1017.5
20260902023645 78 200 1.0 4.0 0.00 0.00 0.00 80 1017.5
20260902023145 78 143 3.0 5.0 0.00 0.00 0.00 80 1017.5
20260902022642 78 171 3.0 4.0 0.00 0.00 0.00 80 1017.5
20260902022145 78 159 3.0 7.0 0.00 0.00 0.00 80 1017.6
20260902021642 78 145 3.0 6.0 0.00 0.00 0.00 80 1017.6
20260902021142 79 109 4.0 6.0 0.00 0.00 0.00 80 1017.6
20260902020642 79 153 1.0 5.0 0.00 0.00 0.00 80 1017.6
20260902020143 79 123 4.0 5.0 0.00 0.00 0.00 80 1017.6
20260902015643 79 77 0.0 5.0 0.00 0.00 0.00 80 1017.6
20260902015140 79 178 1.0 6.0 0.00 0.00 0.00 79 1017.6
20260902014641 79 133 3.0 5.0 0.00 0.00 0.00 79 1017.5
20260902014140 79 174 3.0 4.0 0.00 0.00 0.00 79 1017.5
20260902013650 79 158 1.0 4.0 0.00 0.00 0.00 79 1017.5
20260902013146 79 167 0.0 4.0 0.00 0.00 0.00 79 1017.6
20260902012640 79 140 4.0 6.0 0.00 0.00 0.00 79 1017.6
20260902012140 79 117 3.0 5.0 0.00 0.00 0.00 79 1017.5
20260902011647 79 164 3.0 7.0 0.00 0.00 0.00 79 1017.5
20260902011144 79 132 2.0 5.0 0.00 0.00 0.00 79 1017.6
20260902010644 79 144 4.0 5.0 0.00 0.00 0.00 79 1017.6
20260902010140 79 139 0.0 3.0 0.00 0.00 0.00 79 1017.6
20260902005640 79 143 0.0 3.0 0.00 0.00 0.00 79 1017.6
20260902005147 79 114 2.0 4.0 0.00 0.00 0.00 79 1017.6
20260902004640 79 184 0.0 7.0 0.00 0.00 0.00 79 1017.6
20260902004141 79 153 1.0 7.0 0.00 0.00 0.00 79 1017.6
20260902003643 79 119 3.0 6.0 0.00 0.00 0.00 79 1017.7
20260902003142 79 163 1.0 7.0 0.00 0.00 0.00 79 1017.6
20260902002643 79 150 1.0 6.0 0.00 0.00 0.00 79 1017.6
20260902002150 79 148 3.0 4.0 0.00 0.00 0.00 79 1017.6
20260902001647 79 146 4.0 6.0 0.00 0.00 0.00 79 1017.6
20260902001141 79 153 2.0 5.0 0.00 0.00 0.00 79 1017.6
20260902000644 79 175 1.0 3.0 0.00 0.00 0.00 79 1017.6
20260902000141 79 171 0.0 5.0 0.00 0.00 0.00 78 1017.6
20260901235641 79 159 1.0 4.0 0.00 0.00 0.00 78 1017.6
20260901235144 79 155 4.0 5.0 0.00 0.00 0.00 78 1017.6
20260901234644 79 172 0.0 6.0 0.00 0.00 0.00 78 1017.7
20260901234141 79 163 0.0 4.0 0.00 0.00 0.00 78 1017.7
20260901233644 80 161 0.0 4.0 0.00 0.00 0.00 78 1017.7
20260901233144 80 106 2.0 5.0 0.00 0.00 0.00 78 1017.7
20260901232644 80 141 2.0 5.0 0.00 0.00 0.00 77 1017.8
20260901232141 80 182 0.0 5.0 0.00 0.00 0.00 77 1017.8
20260901231641 80 159 2.0 5.0 0.00 0.00 0.00 77 1017.7
20260901231144 80 137 0.0 4.0 0.00 0.00 0.00 77 1017.7
20260901230644 80 160 1.0 5.0 0.00 0.00 0.00 76 1017.7
20260901230147 80 53 0.0 6.0 0.00 0.00 0.00 76 1017.6
20260901225644 81 118 4.0 6.0 0.00 0.00 0.00 75 1017.6
20260901225141 81 138 0.0 4.0 0.00 0.00 0.00 75 1017.6
20260901224641 81 161 1.0 5.0 0.00 0.00 0.00 75 1017.6